Presure
171 165 169 111 172 144 138 126 158 130 114 127 138 101 116 132 153 131 115 133 107 115 116 106 131 128 117 112 111 113 136 132 151 159 127 128 123 168 155 179 167 186 204 276 266 235 274 308 293
172 148 125 140 116 140 165 109 107 110 87 125 99 115 137 112 147 109 118 107 115 159 111 142 124 122 118 110 147 161 131 151 125 123 173 151 142 159 172 161 172 204 231 248 250 243 242 243 247
153 178 170 132 111 164 145 113 103 134 124 119 98 129 121 119 119 115 123 109 139 116 117 124 122 123 149 121 135 160 120 123 173 150 167 164 164 168 163 174 184 252 231 214 220 213 221 218 226
175 168 178 126 111 138 139 116 165 134 142 116 109 114 110 116 112 118 104 118 110 120 125 113 119 138 148 155 126 122 168 170 170 162 134 141 169 160 173 174 232 225 223 226 210 214 222 197 201
171 186 146 144 132 159 168 167 132 158 103 170 128 120 126 117 124 123 127 115 120 126 118 138 124 148 126 132 144 126 156 126 160 160 158 175 164 163 179 222 224 218 207 205 210 195 192 206 204
135 194 178 174 180 177 176 169 167 155 121 117 112 115 159 116 117 114 118 148 156 120 115 123 145 150 147 133 139 164 151 163 162 160 160 162 157 210 218 223 206 207 212 200 206 192 195 212 202
131 184 121 150 135 168 168 171 186 130 133 124 110 111 172 126 111 121 140 133 118 178 124 143 122 125 149 151 129 160 166 150 171 154 160 181 168 215 217 211 214 202 195 200 202 203 198 190 197
129 129 164 175 152 95 179 178 182 180 138 113 165 148 119 119 119 141 125 107 115 123 144 123 120 150 124 158 126 161 163 160 163 159 176 182 211 219 213 205 199 201 195 190 182 182 185 189 185
185 132 160 166 134 147 133 175 175 184 185 153 151 123 125 119 125 126 115 118 123 159 123 119 144 135 128 144 130 147 170 173 166 197 226 192 219 213 207 202 198 197 193 194 203 200 187 200 173
123 145 138 151 132 131 117 135 129 130 139 149 135 142 134 140 134 117 127 131 164 161 128 125 159 156 137 146 161 150 164 176 217 225 197 217 196 205 211 195 200 199 172 172 181 176 199 196 186
134 139 131 122 136 164 119 138 124 182 159 181 178 126 152 120 118 123 138 130 121 128 161 158 158 162 139 160 171 177 179 220 225 217 215 202 208 208 196 201 189 195 180 179 198 179 209 203 198
217 122 145 118 118 108 109 127 178 119 153 184 170 138 123 117 130 177 170 124 133 122 126 161 162 148 161 165 176 197 178 219 199 178 205 214 208 208 202 225 205 202 198 206 208 207 195 196 189
118 110 120 101 108 117 150 129 126 181 159 177 171 167 181 182 150 120 127 173 152 141 154 160 156 160 189 173 168 171 224 207 204 212 215 214 211 206 199 204 205 210 199 188 183 178 188 189 189
184 102 136 132 123 115 126 121 170 188 185 139 177 164 135 125 124 124 170 126 131 148 161 127 186 216 170 158 191 208 198 216 229 223 219 219 206 198 198 196 192 192 194 186 181 182 185 179 189
235 220 221 217 216 205 211 173 187 133 189 188 188 159 122 125 159 168 173 129 167 199 126 143 145 152 165 165 216 224 215 204 226 213 206 206 203 194 192 172 177 183 188 180 179 184 141 209 207
232 227 224 168 230 222 228 205 220 219 200 180 126 164 178 143 189 161 161 178 127 145 160 184 209 223 211 201 222 214 202 215 220 203 190 173 190 186 183 196 180 180 174 178 186 183 192 209 209
248 236 253 153 174 235 247 246 254 253 211 173 220 161 209 145 198 192 163 129 228 208 212 229 239 196 233 204 219 215 216 212 187 189 190 195 189 192 189 186 185 174 182 107 118 160 203 199 200
236 239 240 239 239 241 240 246 234 234 176 170 233 237 250 227 217 193 228 207 209 212 232 219 202 215 210 202 207 219 198 189 190 182 177 185 191 193 180 190 178 186 192 107 197 205 195 158 196
219 218 225 257 239 241 234 234 231 232 228 222 222 228 130 131 148 224 231 232 211 228 216 201 213 203 202 209 216 190 186 183 181 188 186 185 181 185 191 187 156 125 191 193 203 106 120 122 194
235 233 229 206 165 223 222 223 235 250 249 252 133 132 166 227 213 230 214 214 225 222 213 207 203 206 204 217 193 183 179 184 183 195 191 187 192 193 188 195 192 202 143 200 201 117 195 200 203
233 234 236 234 183 157 244 255 243 240 232 133 138 201 220 214 210 218 227 224 222 209 203 199 204 206 209 197 186 181 182 185 194 191 193 196 192 197 197 206 194 200 119 197 161 195 211 208 210
224 215 140 147 150 213 215 218 213 202 176 211 221 205 216 216 220 214 225 200 203 199 195 202 203 195 187 182 176 184 190 197 192 197 143 191 184 198 195 196 207 201 206 210 212 210 213 225 120
219 225 223 225 227 221 215 218 217 210 222 213 217 212 212 205 209 203 191 199 199 197 200 202 194 191 181 189 185 195 192 195 195 145 191 183 200 195 197 208 201 196 206 214 217 219 232 192 134
233 233 233 231 228 225 228 226 231 233 220 207 213 213 211 220 201 197 193 191 190 196 194 190 193 190 176 191 186 190 192 191 147 188 198 194 201 201 202 204 208 208 220 221 230 241 242 247 249
242 247 253 255 236 229 231 246 250 252 253 235 212 206 202 198 199 197 190 190 188 186 192 191 184 193 191 197 197 193 190 193 152 194 197 197 195 198 211 212 215 223 225 238 243 258 255 269 274
153 228 236 236 234 236 241 227 227 234 244 240 236 216 205 184 192 191 192 187 187 190 183 190 192 184 193 187 186 189 191 183 120 197 198 195 207 194 211 217 229 243 250 261 273 294 301 339 306
212 208 207 208 198 204 201 199 198 198 199 213 212 195 190 191 193 190 182 185 183 194 196 190 191 190 188 185 189 116 99 195 191 195 199 196 210 217 225 234 250 261 269 280 284 301 342 327 331
206 205 204 200 203 208 209 201 204 205 203 201 201 201 198 199 195 190 191 198 193 190 191 190 162 188 188 183 197 167 191 194 195 195 204 222 233 225 241 248 268 304 288 351 347 342 340 340 382
198 197 197 189 195 201 203 208 206 165 194 189 188 183 186 183 194 198 200 190 190 183 181 184 155 154 184 186 186 194 195 195 205 205 214 234 239 248 261 291 282 352 351 349 420 446 429 418 416
194 202 198 201 193 195 193 196 195 189 189 191 197 192 194 216 207 182 195 188 180 181 181 191 183 183 193 194 195 193 198 203 213 215 228 256 261 297 284 274 357 344 453 439 427 413 405 401 396
Wind_Speed
84 84 85 37 91 69 66 51 69 60 41 48 57 37 42 59 59 54 48 68 35 50 53 43 59 67 56 52 54 58 82 80 89 91 80 81 79 100 106 121 110 120 130 22 20 50 20 20 19
86 60 49 63 37 55 78 33 31 38 26 45 29 47 70 41 71 38 53 40 48 74 47 69 65 63 60 53 79 90 74 91 75 75 98 100 93 97 122 105 121 112 62 28 18 19 20 19 18
65 96 90 55 30 82 61 37 36 65 46 43 31 59 54 46 44 44 55 42 69 48 56 64 63 64 82 67 80 91 68 72 97 97 96 104 112 118 114 124 133 19 37 51 39 41 18 24 19
91 90 101 42 35 60 65 44 82 65 65 42 36 42 44 48 43 48 37 53 45 61 67 53 61 82 83 89 73 70 96 100 99 99 90 95 125 115 128 125 47 38 39 27 40 22 11 46 36
87 103 63 61 49 72 88 86 53 78 30 85 59 47 51 50 54 54 60 53 59 68 57 81 68 84 70 76 87 77 98 80 99 101 105 122 121 114 133 51 41 43 45 45 31 42 42 23 21
56 104 90 93 100 96 96 92 87 78 48 40 45 50 79 44 49 48 53 75 79 58 57 66 87 83 89 79 86 100 96 104 108 111 111 116 107 77 54 40 54 45 39 44 43 44 42 20 23
50 96 43 64 43 86 87 91 103 51 55 42 49 44 88 56 43 56 71 69 55 95 67 83 66 69 93 93 80 98 116 93 121 107 116 133 126 65 45 47 38 42 47 40 37 36 38 38 29
43 43 78 89 62 34 97 98 104 102 54 42 83 72 51 52 53 70 62 48 57 65 81 65 66 90 74 96 80 107 113 111 122 106 137 122 71 47 45 51 55 47 47 45 46 45 44 36 36
92 49 67 75 46 64 43 90 86 104 106 65 75 50 53 52 58 61 51 58 66 81 65 62 88 79 79 92 81 97 126 128 127 112 53 93 49 53 54 54 54 52 49 49 50 44 46 42 45
43 63 52 65 42 45 40 52 43 49 66 71 60 65 63 68 65 50 64 71 81 94 68 67 92 90 82 94 114 96 113 130 82 51 84 54 76 60 51 58 54 54 55 54 50 48 50 48 45
43 53 48 40 46 82 44 52 46 101 66 96 96 56 77 51 50 57 73 66 63 68 85 86 96 112 88 110 124 133 132 73 57 67 55 73 57 56 58 53 56 57 57 55 54 53 45 43 43
108 43 64 41 41 36 38 48 99 44 74 105 89 64 53 50 63 103 100 65 73 64 68 99 100 88 113 109 127 115 115 68 73 100 73 59 59 57 55 52 56 55 57 56 53 50 50 46 47
40 35 45 32 38 43 71 52 51 99 83 96 85 78 109 113 74 56 65 104 79 76 83 94 103 110 124 116 101 105 60 91 89 66 61 59 57 55 52 52 50 47 48 51 51 53 52 51 52
74 31 50 49 44 40 47 45 91 106 104 65 100 93 61 56 57 60 96 64 68 84 94 73 114 66 112 88 94 93 86 73 57 55 55 55 53 55 52 52 53 52 51 52 55 55 57 56 57
77 84 87 89 94 87 103 89 104 59 108 109 112 75 54 58 71 87 101 65 91 111 72 75 93 92 106 94 75 66 74 73 49 49 54 55 51 56 55 60 60 58 56 58 59 59 47 62 62
61 69 76 57 79 81 82 85 104 104 118 104 52 89 93 66 116 100 69 107 65 76 92 94 68 48 65 90 59 67 73 63 50 48 53 72 65 64 64 59 62 62 62 67 66 65 67 67 64
49 56 57 55 61 70 67 67 60 59 44 66 71 82 108 66 54 86 89 65 47 74 71 36 31 63 50 68 65 63 61 53 63 61 59 57 63 66 67 67 67 66 70 43 46 60 72 69 69
42 44 43 49 53 55 54 50 54 55 65 77 60 54 41 56 57 52 46 71 69 63 33 38 65 49 51 60 63 59 58 64 64 70 71 68 68 69 70 71 69 71 76 44 77 78 76 58 74
39 40 42 40 43 43 44 43 51 49 53 56 56 56 58 63 64 55 48 42 58 37 39 60 47 58 57 56 54 60 63 68 72 71 71 70 71 73 76 75 61 49 78 82 83 43 56 58 83
34 34 38 38 43 41 44 42 48 40 40 35 55 57 56 42 53 42 53 52 37 36 47 51 53 55 56 53 56 66 73 76 77 75 74 74 76 77 77 81 81 85 63 88 89 56 86 88 90
31 32 30 36 41 44 39 31 36 38 38 57 58 48 44 48 52 49 39 40 37 45 49 55 55 56 53 54 65 72 76 79 79 79 81 82 82 85 86 87 83 87 59 88 75 90 94 93 97
27 27 42 43 44 37 41 35 40 43 46 39 40 50 43 41 38 44 36 48 46 50 52 52 54 57 63 67 72 75 78 79 81 83 68 86 82 92 91 92 96 95 97 98 100 99 103 109 62
27 26 29 28 28 30 42 36 28 40 30 40 43 44 38 45 40 44 55 52 53 56 57 56 57 63 72 74 76 78 81 84 86 70 90 87 97 98 101 103 102 98 104 112 114 114 121 100 73
20 22 24 26 29 33 35 38 33 26 29 40 42 41 44 37 42 43 47 52 58 58 60 64 66 67 73 76 79 83 86 90 71 93 100 100 104 106 106 108 110 113 117 118 123 126 123 124 123
14 16 19 23 28 31 34 35 31 31 31 30 38 43 47 48 48 46 50 53 58 65 65 70 76 77 79 79 80 82 85 90 78 99 101 102 106 110 115 118 121 125 125 130 130 137 130 137 135
36 10 10 11 16 22 22 23 25 25 27 26 31 34 37 54 52 52 52 57 60 61 67 71 73 77 81 85 87 90 92 91 63 103 107 110 115 110 120 125 129 132 136 141 142 141 137 121 129
12 16 17 19 31 28 26 29 32 36 35 31 32 38 42 50 47 53 60 63 68 69 69 72 76 79 83 88 93 52 52 101 103 109 112 113 119 122 128 132 138 140 138 137 137 132 116 123 119
17 19 20 26 28 30 28 27 29 28 31 34 36 41 50 51 53 54 59 60 64 69 72 75 68 82 86 89 96 88 103 108 110 113 118 125 127 126 134 136 142 143 137 120 119 119 118 117 96
25 27 28 36 33 33 40 32 30 31 40 46 49 53 56 59 61 60 59 62 66 70 75 81 72 75 93 97 100 107 110 112 117 120 126 132 133 137 142 139 136 120 118 117 90 73 70 68 65
30 26 30 31 35 37 43 48 43 46 46 48 48 52 57 52 56 64 64 70 74 79 82 85 89 95 99 103 106 109 115 117 122 125 132 138 133 140 137 134 119 118 79 77 75 72 68 65 64
Wind_Direction
250 252 254 269 259 264 265 267 265 273 276 288 261 283 294 287 275 290 291 284 309 302 303 306 299 296 310 310 309 308 297 299 291 294 301 300 301 309 288 312 305 308 309 329 331 308 354 321 314
250 256 258 259 272 264 260 283 281 276 286 287 290 292 277 292 269 291 287 301 305 277 298 285 300 304 307 307 296 287 297 289 301 304 305 291 306 302 311 305 309 310 306 320 352 349 345 348 356
256 250 252 262 276 261 261 272 271 273 283 285 279 277 287 294 296 293 288 307 285 297 303 300 304 304 286 303 298 296 303 306 303 293 305 309 310 309 309 307 311 301 302 305 307 306 327 316 341
248 249 248 266 269 266 261 275 264 271 268 278 284 282 287 293 295 296 300 298 304 299 296 305 305 291 291 290 305 306 301 304 306 304 301 303 311 307 310 309 305 298 294 289 301 302 350 304 306
246 249 256 260 269 261 260 262 271 266 282 270 278 280 280 286 287 291 291 301 299 295 305 290 302 292 299 302 294 306 294 308 303 307 307 310 308 309 312 302 294 296 299 297 290 297 297 283 296
251 249 253 253 254 257 260 262 263 267 273 274 281 283 275 290 292 298 300 283 283 296 304 304 290 292 292 299 299 299 296 307 309 308 307 307 306 307 301 294 301 298 288 291 285 289 289 296 283
260 249 266 257 268 259 261 262 261 273 272 276 279 289 276 286 298 294 282 289 297 292 302 293 302 307 294 293 307 299 308 305 307 306 307 305 307 303 298 295 292 291 290 292 296 295 285 287 289
265 266 255 256 259 280 260 263 263 264 275 281 271 275 287 291 292 281 290 301 301 300 292 304 307 289 307 295 307 307 308 306 306 306 305 304 305 296 296 296 294 295 293 294 293 293 289 291 283
245 265 258 257 262 263 267 264 263 266 269 272 273 283 284 289 288 288 298 300 299 282 301 304 290 302 305 301 303 304 305 303 304 302 295 303 286 292 290 292 293 298 297 298 299 298 290 295 283
264 254 260 257 264 265 274 271 274 275 276 277 278 284 282 282 284 299 291 290 287 292 300 304 297 293 300 301 302 303 302 302 303 297 301 293 303 294 293 297 296 296 290 294 297 299 297 294 290
265 258 266 266 266 262 275 274 279 267 270 275 278 282 281 292 299 298 287 293 298 298 290 292 297 299 299 299 299 299 299 298 297 302 296 302 296 296 297 296 294 295 296 299 294 297 294 294 293
239 261 254 277 272 279 286 275 262 286 277 273 278 280 288 295 292 285 287 296 292 299 299 293 294 297 295 297 297 300 302 301 300 304 301 297 295 294 295 296 290 292 292 294 296 296 295 295 289
259 276 263 277 275 274 264 271 271 267 274 275 279 281 279 279 288 295 293 286 288 295 293 292 294 293 290 294 297 299 295 301 301 298 296 296 292 295 297 297 294 293 292 292 291 293 290 288 285
244 277 263 260 267 280 272 277 265 263 268 280 274 274 283 290 292 293 285 294 296 293 291 300 292 291 289 299 296 297 297 295 297 297 299 296 297 295 294 292 293 292 292 290 291 292 293 288 289
237 242 246 249 251 255 256 260 260 276 264 265 267 279 291 292 284 284 285 295 287 284 300 298 295 296 295 299 287 286 290 299 297 302 298 296 293 293 295 299 298 293 293 292 293 295 291 294 294
239 241 247 260 254 255 258 259 257 259 261 267 287 274 276 287 278 283 287 282 296 293 290 285 281 259 277 292 279 285 293 295 298 292 294 302 299 297 296 296 295 294 295 294 294 295 299 297 295
245 247 252 262 262 258 260 261 265 268 275 277 269 277 270 285 278 280 285 295 275 282 283 276 269 284 260 284 280 284 289 293 296 295 293 295 294 295 298 297 296 298 298 306 298 296 299 298 297
244 248 253 254 255 257 258 259 264 266 274 274 269 272 267 274 275 282 272 272 281 280 280 280 286 282 284 286 287 288 293 296 295 296 299 298 297 295 294 295 297 300 298 296 301 298 301 297 297
247 250 251 258 257 262 263 268 271 272 272 272 273 273 291 292 289 269 266 273 280 285 278 285 281 284 285 287 285 291 291 289 290 290 290 293 295 295 295 297 293 295 301 301 298 286 295 295 294
250 252 255 262 270 263 266 269 270 260 258 259 288 289 283 268 272 269 275 278 286 286 285 284 286 288 289 290 286 287 290 290 294 291 294 295 295 294 298 298 301 300 295 300 299 296 295 293 292
258 262 266 266 273 277 260 253 258 262 264 286 286 279 272 272 273 272 279 283 284 285 289 292 291 291 291 286 286 290 292 294 295 296 297 297 300 300 300 298 301 299 293 297 292 294 295 292 292
257 266 273 274 276 270 271 268 270 275 280 268 267 273 275 277 283 283 290 288 290 290 290 289 292 289 290 290 296 293 292 293 296 298 300 303 306 303 304 304 301 300 299 299 298 297 296 297 291
260 252 258 258 261 260 265 261 256 260 279 270 264 261 267 274 281 285 292 297 298 295 295 295 291 289 293 292 296 296 298 300 302 301 304 307 304 305 304 303 303 305 304 303 302 300 300 296 288
269 269 268 267 267 267 268 265 268 263 249 267 277 284 284 280 279 287 291 292 292 294 294 294 291 291 297 294 300 301 303 304 301 306 305 307 305 304 305 304 304 304 302 301 300 299 296 294 292
273 275 274 271 270 273 278 286 298 289 278 255 259 273 287 291 289 289 290 293 294 295 295 297 299 300 301 301 299 299 301 302 306 302 302 303 305 306 306 306 304 302 301 300 299 297 295 295 293
274 297 305 305 298 297 319 322 321 308 300 287 272 272 280 287 290 293 286 283 285 288 293 295 297 300 302 304 306 306 305 305 302 305 307 308 306 308 305 303 302 301 300 299 297 296 295 293 292
264 272 278 283 278 286 288 290 292 294 293 296 287 278 275 276 283 286 292 293 297 297 299 300 301 302 304 306 305 298 299 306 308 307 306 306 304 304 303 303 303 301 300 298 298 296 292 290 288
260 270 274 277 283 289 281 280 285 284 292 292 292 291 293 292 290 290 293 296 298 301 301 300 301 303 305 307 305 308 308 307 307 308 306 305 304 306 304 303 302 300 300 298 296 294 293 292 293
267 269 270 282 287 295 297 294 281 286 284 287 288 292 292 296 295 294 295 296 296 298 304 307 310 308 309 308 309 306 307 308 306 308 307 306 306 306 304 301 302 302 300 299 300 301 300 298 297
280 290 291 292 287 290 293 296 296 293 292 287 285 288 292 294 296 301 303 305 307 308 309 305 308 308 306 306 306 307 307 308 307 306 307 305 305 305 306 304 303 301 304 303 301 300 298 297 296